Regional Weather Roundup
Issued by NWS Sioux Falls, SD

Home | Current Version | Previous Version | Text Only | Print | Product List | Glossary On
Versions: 1 2 3 4 5 6 7 8 9 10 11 12 13 14 15 16 17 18 19 20 21 22 23 24 25 26 27 28 29 30 31 32 33 34 35 36 37 38 39 40 41 42 43 44 45 46 47 48 49 50
000
ASUS43 KFSD 172310
RWRFSD

WEATHER ROUNDUP FOR SE SOUTH DAKOTA/SW MINNESOTA/NW IOWA
NATIONAL WEATHER SERVICE SIOUX FALLS SD
600 PM CDT THU AUG 17 2017

NOTE: "FAIR" INDICATES FEW OR NO CLOUDS BELOW 12,000 FEET WITH NO
SIGNIFICANT WEATHER AND OR OBSTRUCTIONS TO VISIBILITY.


SDZ038>040-050-052>070-180000-
SOUTHEAST SOUTH DAKOTA

CITY           SKY/WX    TMP DP  RH WIND       PRES   REMARKS
BROOKINGS      SUNNY     76  58  53 N5        29.90S
CHAMBERLAIN    SUNNY     81  63  54 E9        29.85F
HURON          SUNNY     80  59  48 E6        29.87S
MADISON        FAIR      75  57  53 NW7       29.91S
MITCHELL       SUNNY     81  60  48 SE5       29.88F
SIOUX FALLS    SUNNY     80  61  52 NW8       29.90R
WINNER         FAIR      86  60  41 S12       29.84F
YANKTON        SUNNY     81  59  47 W5        29.90F
$$

MNZ071-072-080-081-089-090-097-098-180000-
SOUTHWEST MINNESOTA

CITY           SKY/WX    TMP DP  RH WIND       PRES   REMARKS
FAIRMONT       PTSUNNY   73  63  70 NW15G21   29.86R
JACKSON        SUNNY     73  61  64 NW14      29.88R
LUVERNE        SUNNY     75  59  57 NW8       29.90R
MARSHALL       SUNNY     75  59  57 NW14      29.87R
MONTEVIDEO     SUNNY     79  73  83 N9G16     29.85S
PIPESTONE      SUNNY     77  59  53 NW10      29.90S
REDWOOD FALLS  MOSUNNY   75  61  61 NW14G22   29.83R
TRACY          SUNNY     75  61  61 NW8       29.87R
WINDOM         SUNNY     75  61  60 NW13G21   29.87R
WORTHINGTON    SUNNY     76  60  57 NW9       29.89R
$$

IAZ001>003-012>014-020>022-031-032-NEZ013-014-SDZ071-180000-
NORTHWEST IOWA

CITY           SKY/WX    TMP DP  RH WIND       PRES   REMARKS
CHEROKEE       SUNNY     79  58  49 NW9G20    29.89R
DENISON        SUNNY     79  59  50 NW9G16    29.92R
ESTHERVILLE    SUNNY     76  64  66 NW14G21   29.85R
LE MARS        SUNNY     79  61  53 NW8G14    29.90R
ORANGE CITY    SUNNY     79  63  57 W10       29.90R
SHELDON        SUNNY     77  63  61 NW10      29.88R
SIOUX CITY     SUNNY     81  62  52 W7        29.89S
SPENCER        SUNNY     79  62  56 NW17G23   29.87R
STORM LAKE     SUNNY     75  61  60 NW13      29.90R
$$

ABBREVIATIONS USED IN REMARKS
   TC - TEMPERATURE IN CELSIUS
  WCI - WIND CHILL INDEX
   HX - HEAT INDEX
  VSB - VISIBILITY





USA.gov is the U.S. government's official web portal to all federal, state and local government web resources and services.